Flag for Germany Weather past 2 weeks in Mönchengladbach, North Rhine-Westphalia, Germany

Now
68 °F

Passing clouds.


Feels Like: 68 °F
Forecast: 52 / 70 °F
Wind: 3 mph from Northeast

Location: Monchengladbach Airport

Current Time: Oct 2, 2014 at 5:34:18 PM

Latest Report: Oct 2, 2014 at 5:20 PM


Visibility: N/A

Pressure: 30.33 "Hg

Humidity: 78%

Dew point: 61 °F

Location of MönchengladbachLocation

Historic Weather in Mönchengladbach — Graph

°F

Mönchengladbach temperature yesterday

Maximum temperature yesterday: 70 °F (at 3:50 PM)
Minimum temperature yesterday: 54 °F (at 7:50 AM)
Average temperature yesterday: 64 °F

Past Weeks' High & Low Weather Summary

 TemperatureHumidityPressure
High77 °F (Sep 17, 4:20 PM)100% (Sep 18, 8:20 PM)30.39 "Hg (Sep 18, 8:20 PM)
Low46 °F (Sep 23, 7:50 AM)47% (Sep 17, 5:50 PM)29.80 "Hg (Sep 18, 7:50 PM)
Average63 °F78%30.11 "Hg
* Reported Sep 17 4:20 PM — Oct 2 4:20 PM, Mönchengladbach, Weather by CustomWeather, © 2014

Note: Actual official high and low records may vary slightly from our data, if they occured in-between our weather recording intervals... More about our weather records

Advertising

Mönchengladbach weather history for previous 24 hours

 ConditionsComfort  
Time TempWeatherWind HumidityBarometerVisibility
4:20 PM
Oct 2
70 °FClear.1 mph69%30.36 "Hg4 mi
3:50 PM68 °FClear.1 mph73%30.36 "Hg4 mi
3:20 PM70 °FClear.1 mph73%30.36 "Hg4 mi
2:50 PM68 °FClear.2 mph73%30.36 "Hg4 mi
2:20 PM68 °FFog.5 mph73%30.36 "Hg3 mi
1:50 PM66 °FPassing clouds.5 mph83%30.36 "Hg4 mi
1:20 PM66 °FPassing clouds.5 mph83%30.39 "Hg4 mi
12:50 PM66 °FClear.1 mph78%30.39 "Hg4 mi
12:20 PM66 °FHaze.1 mph73%30.39 "Hg3 mi
11:50 AM64 °FClear.1 mph78%30.39 "Hg4 mi
11:20 AM64 °FClear.1 mph78%30.39 "Hg4 mi
10:50 AM61 °FClear.2 mph88%30.39 "Hg4 mi
10:20 AM59 °FClear.2 mph94%30.39 "Hg4 mi
9:50 AM57 °FClear.2 mph100%30.39 "Hg4 mi
9:20 AM57 °FFog.1 mph94%30.39 "Hg3 mi
8:50 AM55 °FFog.1 mph100%30.39 "Hg3 mi
8:20 AM54 °FFog.3 mph100%30.36 "Hg3 mi
7:50 AM54 °FFog.2 mph100%30.36 "Hg2 mi
8:20 PM
Oct 1
57 °FClear.No wind94%30.33 "Hg10 mi
7:50 PM59 °FClear.No wind94%30.33 "Hg10 mi
7:20 PM61 °FClear.No wind88%30.30 "Hg10 mi
6:50 PM66 °FClear.No wind73%30.30 "Hg10 mi
6:20 PM70 °FClear.2 mph60%30.30 "Hg10 mi
5:50 PM68 °FClear.3 mph64%30.30 "Hg10 mi
5:20 PM70 °FPassing clouds.5 mph60%30.30 "HgN/A
Weather by CustomWeather, © 2014

See weather overviewHow to use our weather pages